SBIRS GEO-2 (USA 241)

Last updated on Sun Apr 12 2026 00:02:53 GMT+0000 (Coordinated Universal Time)

1 39120U 13011A 26101.22561580 -.00000282 00000+0 00000+0 0 9991 2 39120 4.3457 52.4281 0002296 323.0699 215.3641 1.00271368 47868
UTC large
Height (km)
Speed (km/s)
/
Latitude / Longitude
Inclination (degrees)
Orbital Period (minutes)
Azimuth
Elevation
Range (km)
Doppler Factor

Next 0 passes for location: London (51.5072 / 0.1276)

Sorry there are no passes over London.
SBIRS GEO-2 (USA 241)